Regional Weather Roundup
Issued by NWS

Home | Current Version | Previous Version | Text Only | Print | Product List | Glossary Off
Versions: 1 2 3 4 5 6 7 8 9 10 11 12 13 14 15 16 17 18 19 20 21 22 23 24 25 26 27 28 29 30 31 32 33 34 35 36 37 38 39 40 41 42 43 44 45 46 47 48 49 50

000
ASUS43 KLOT 270103
RWRIL

ILLINOIS REGIONAL WEATHER ROUNDUP
NATIONAL WEATHER SERVICE CHICAGO/ROMEOVILLE IL
800 PM CDT THU APR 26 2018

NOTE: "FAIR" INDICATES FEW OR NO CLOUDS BELOW 12,000 FEET WITH NO
SIGNIFICANT WEATHER AND/OR OBSTRUCTIONS TO VISIBILITY.

* THESE STATIONS ARE NOT UNDER NWS QUALITY CONTROL. THEY ALSO MAY NOT
  REPORT WEATHER SUCH AS PRECIPITATION OR FOG.

ILZ001-002-007-009-015-016-024-270200-
NORTHWEST ILLINOIS

CITY           SKY/WX    TMP DP  RH WIND       PRES   REMARKS
MOLINE         FAIR      63  28  26 W6        29.82S
STERLING*      FAIR      61  27  27 SW5       29.82F
SAVANNA*       FAIR      64  31  29 SW5       29.80F
$$

ILZ003-004-008-010-011-017-018-270200-
NORTH CENTRAL ILLINOIS

CITY           SKY/WX    TMP DP  RH WIND       PRES   REMARKS
ROCKFORD       FAIR      64  26  23 SW3       29.82F
FREEPORT*      FAIR      56  30  36 SW7       29.82F
ROCHELLE*      FAIR      57  31  37 SW6       29.83S
DE KALB*       FAIR      62  30  30 W5        29.84S
PERU*          FAIR      63  31  30 W3        29.84F
$$

ILZ005-006-012>014-019>023-270200-
NORTHEAST ILLINOIS

CITY           SKY/WX    TMP DP  RH WIND       PRES   REMARKS
CHICAGO-OHARE  CLOUDY    63  29  27 CALM      29.82F
CHICAGO-MIDWAY CLOUDY    58  29  33 SE9       29.84S
AURORA         FAIR      61  31  32 W5        29.83F
LANSING*       FAIR      57  35  44 E7        29.86R
JOLIET*        FAIR      60  35  39 S3        29.84F
WAUKEGAN       FAIR      50  25  37 SE9       29.82F
DUPAGE AIRPORT FAIR      61  28  28 W6        29.82F
KANKAKEE*      FAIR      60  29  30 CALM      29.86S
WHEELING       FAIR      58  27  30 SE7       29.84S
MORRIS*        HAZE      60  32  34 S5        29.83S VSB 1
ROMEOVILLE*    FAIR      59  32  35 S5        29.84S
NORTHERLY ISL    N/A     46  35  65 SE3         N/A
$$

LMZ740>746-270200-
SOUTHERN LAKE MICHIGAN

STATION/POSITION SKY/WX   TEMP    WIND        PRES    VSBY  WAVE
                          AIR SEA DIR/SP/G                  HT/PER
                          (F)     (DEG/KT/KT) (MB)    (MI)  (FT/S)
HARRISON CRIB              48     170/  7/  8   N/A
BURNHAM HARBOR             46     160/  2/  4   N/A
CALUMET HARBOR             51     100/  6/  8 1010.4R
BURNS HARBOR               58     110/  1/  4 1011.9R
MICHIGAN CITY              58     110/  3/  3   N/A
ST. JOSEPH                 49 44  180/  2/  2 1011.7R         1
$$

ILZ025>027-034>036-040-047-049-050-058-095>099-270200-
WEST-CENTRAL ILLINOIS

CITY           SKY/WX    TMP DP  RH WIND       PRES   REMARKS
QUINCY         CLEAR     62  33  33 W6        29.88R
GALESBURG*     FAIR      64  32  30 W3        29.85S
MACOMB*        CLEAR     60  30  32 W6        29.88S
JACKSONVILLE*  PTCLDY    61  32  33 W3        29.87S
PITTSFIELD*    PTCLDY    66  34  29 CALM      29.89S
$$

ILZ028>032-037-038-041>044-048-051>054-059>061-270200-
CENTRAL ILLINOIS

CITY           SKY/WX    TMP DP  RH WIND       PRES   REMARKS
PONTIAC        FAIR      61  33  34 SW5       29.86S
BLOOMINGTON    FAIR      60  34  37 SW3       29.87F
DECATUR        FAIR      60  32  34 N5        29.87S
PEORIA         FAIR      65  33  30 SW3       29.85S
LACON*         FAIR      59  37  43 CALM      29.83S
LINCOLN*       FAIR      63  36  36 CALM      29.87S
SPRINGFIELD    FAIR      65  33  30 CALM      29.87S
TAYLORVILLE    FAIR      63  33  32 N5        29.88R
$$

ILZ033-039-045-046-055>057-062-063-270200-
EAST-CENTRAL ILLINOIS

CITY           SKY/WX    TMP DP  RH WIND       PRES   REMARKS
CHAMPAIGN      FAIR      57  34  41 NW7       29.87S
DANVILLE*      FAIR      60  30  32 CALM      29.85R
RANTOUL*       FAIR      61  35  37 W3        29.87R
MATTOON        FAIR      62  35  36 N3        29.86S
PARIS*         FAIR      58  31  35 CALM      29.88R
$$

ILZ079-100>102-270200-
SOUTHWEST ILLINOIS

CITY           SKY/WX    TMP DP  RH WIND       PRES   REMARKS
ALTON          MOCLDY    59  41  51 W8        29.88S
BELLEVILLE     CLOUDY    63  40  43 W5        29.86S
CAHOKIA*       CLOUDY    65  39  38 NW3       29.87S
SPARTA*        PTCLDY    61  46  57 S3        29.90S
$$

ILZ064>066-069>071-074>076-080>082-084>086-088>090-092>094-270200-
SOUTH-CENTRAL ILLINOIS

CITY           SKY/WX    TMP DP  RH WIND       PRES   REMARKS
CARBONDALE     FAIR      60  43  53 W3        29.89S
CAIRO*         FAIR      59  48  66 SW3       29.90R
EFFINGHAM*     FAIR      61  40  45 CALM      29.89S
MARION         FAIR      57  43  60 CALM      29.90S
MT. VERNON     FAIR      59  40  49 CALM      29.89R
CENTRALIA*     CLEAR     60  42  50 CALM      29.88S
SALEM*         FAIR      62  39  42 CALM      29.88S
METROPOLIS*    FAIR      59  46  61 CALM      29.90R
$$

ILZ067-068-072-073-078-083-087-091-270200-
SOUTHEAST ILLINOIS

CITY           SKY/WX    TMP DP  RH WIND       PRES   REMARKS
LAWRENCEVILLE  FAIR      62  31  31 MISG      29.87S
FLORA*         FAIR      62  41  45 CALM      29.88S
FAIRFIELD*     FAIR      62  38  40 CALM      29.87S
HARRISBURG*    FAIR      58  46  63 W6        29.89S
ROBINSON*      FAIR      57  37  48 CALM      29.88S
CARMI*         FAIR      59  43  56 CALM      29.87S
$$

ABBREVIATIONS USED IN REMARKS
   TC - TEMPERATURE IN CELSIUS
  WCI - WIND CHILL INDEX
   HX - HEAT INDEX
  VSB - VISIBILITY
$$





USA.gov is the U.S. government's official web portal to all federal, state and local government web resources and services.